Weather in Incukalns

Latvia     57°06′17″N   24°41′32″E
temp.,
°C
wind,
m/s
gust,
m/s
humid.,
%
clouds,
%
prec.,
mm/h
press.,
hPa
HPBL,
m
10 april, sat
sat1000:00+5ssw71564100 0.0 10101226
03:00+5sw51172100 0.0 10101026
06:00+4ssw51077100 0.0 1010892
09:00+4ssw41093100 0.4 1011802
12:00+5sw4982100 0.6 10121137
15:00+7wsw4958100 1.0 10131808
18:00+8w48365 0.1 10152230
21:00+2nnw11590 0.1 101810
11 april, sun
sun1100:000sse11663 0.0 102011
03:000sse11705 0.0 102112
06:00−1sse117288 0.0 102213
09:00+4se2353100 0.0 1024265
12:00+8se344088 0.0 10241065
15:00+11sse4554100 0.0 10231452
18:00+8se41079100 0.0 1023597
21:00+7ese51389100 0.0 1022375
12 april, mon
mon1200:00+8se5159169 0.0 1022388
03:00+7se4148994 0.0 1021377
06:00+6sse4148091 0.0 1021371
09:00+9sse51464100 0.0 1020542
12:00+13sse61247100 0.0 10201112
15:00+15sse61038100 0.0 10191650
18:00+14s5945100 0.0 10181504
21:00+10s41066100 0.1 1018689
13 april, tue
tue1300:00+9s2986100 0.6 1018400
03:00+8sse2693100 1.4 1017274
06:00+7s2594100 0.1 1017205
09:00+9ssw2390100 0.1 1017298
12:00+8nw3289100 0.0 1018414
15:00+6nw3591100 0.1 1019401
18:00+3nnw4985100 0.6 1019464
21:00+2nnw3897100 1.3 1020378
14 april, wed
wed1400:00+2nnw3896100 0.2 1020357
03:00+2nnw3896100 0.3 1020476
06:00+2n3897100 0.9 1019412
09:00+2n2789100 1.3 1020691
12:00+5n4772100 0.4 1020963
15:00+7nnw466199 0.4 10201251
18:00+7nnw4761100 0.0 1019997
21:00+3nnw41072100 0.0 1020421